Lid_Strength_Index
2 1 1 1 1 1 1 1 1 1 2 1 1 0 1 1 1 1 2 2 1 2 2 2 2 1 2 2 2 2 3 3 4 3 2 2 2 1 1 0 -0 0 0
1 1 2 1 1 2 1 1 1 1 2 2 1 1 2 2 3 3 3 2 1 2 2 2 2 1 2 2 2 3 2 2 3 4 3 2 2 1 1 1 1 0 1
2 2 2 2 1 1 1 2 1 1 1 2 2 2 2 3 3 3 3 2 1 1 1 2 2 2 2 2 2 2 2 2 3 3 3 2 2 2 2 2 1 1 0
2 2 2 2 2 1 1 1 2 1 1 2 2 2 2 2 2 2 2 2 1 1 1 2 2 2 2 2 2 2 2 3 3 3 3 3 2 2 2 2 2 2 1
2 2 2 2 1 1 1 1 1 1 1 1 2 2 2 2 2 2 2 2 2 2 1 1 1 1 1 1 1 2 2 2 3 3 4 4 3 3 3 2 3 3 2
2 2 2 2 1 1 1 1 1 1 1 1 1 1 2 1 3 3 2 1 1 1 2 1 1 1 1 2 2 2 2 2 3 3 3 3 3 2 2 3 2 3 4
2 2 2 2 2 2 1 1 1 1 1 1 1 2 2 2 4 4 3 1 1 1 1 2 1 0 1 1 3 3 3 3 2 2 3 3 3 2 2 2 2 3 3
3 2 2 2 2 2 2 2 2 2 2 2 1 1 1 2 5 5 4 2 2 2 2 2 2 1 1 1 2 2 2 2 2 2 2 1 1 1 2 1 2 2 2
3 3 2 2 2 2 2 2 2 2 2 2 1 1 2 2 6 6 5 3 3 3 2 3 2 2 5 5 3 3 3 3 3 4 4 4 5 4 4 2 2 3 4
3 2 2 2 2 2 2 2 2 2 2 2 2 2 3 2 8 8 5 3 3 4 4 4 6 5 7 7 4 3 4 4 5 4 4 4 3 2 3 2 1 3 3
2 2 2 2 2 2 2 3 2 2 2 2 2 3 3 4 6 8 8 3 3 3 3 4 6 8 9 9 7 5 5 5 3 3 2 3 2 2 2 2 3 3 3
2 2 2 2 2 2 3 3 2 2 2 2 3 4 4 5 8 9 9 8 5 3 4 5 7 9 9 7 6 6 5 3 3 3 3 4 4 3 3 3 2 2 3
2 2 3 3 3 3 3 3 3 3 3 3 3 4 5 6 6 8 7 7 6 4 2 5 8 9 8 7 6 4 3 4 4 3 3 4 3 3 3 3 2 2 3
3 3 3 4 4 4 4 4 4 3 4 3 3 4 6 6 6 4 4 4 5 5 5 6 6 5 5 5 4 4 4 4 4 3 3 3 4 4 4 3 4 3 3
3 3 4 4 4 7 9 7 4 7 5 3 3 4 5 6 5 6 6 3 4 6 5 5 5 4 4 4 5 6 6 5 4 3 3 4 6 5 5 4 3 2 2
4 3 4 5 6 7 6 9 13 13 14 13 10 6 6 8 10 10 10 10 9 9 4 4 4 4 4 5 5 5 5 5 4 4 6 5 6 6 5 4 4 2 3
3 3 3 5 5 5 5 6 7 10 13 14 14 13 11 9 11 12 12 12 11 8 4 4 4 3 2 4 3 3 5 5 5 6 6 5 5 6 6 5 5 4 3
2 6 3 3 5 5 5 6 6 6 7 8 11 11 13 14 14 14 14 10 6 6 5 5 4 4 3 3 2 3 3 5 5 5 5 4 3 5 6 6 6 5 5
2 3 2 3 4 5 5 5 5 6 6 8 8 10 13 14 14 14 13 6 5 5 5 4 4 3 3 3 2 3 4 4 4 3 2 2 3 5 6 6 5 6 5
4 4 3 2 4 4 4 5 6 6 7 7 6 6 8 9 7 7 7 5 5 5 5 4 4 3 3 3 4 4 4 4 4 4 4 3 2 3 5 5 5 5 5
3 3 3 2 3 3 4 4 5 5 4 5 5 5 8 5 4 4 5 5 5 4 3 3 3 3 3 3 4 4 4 4 4 4 4 4 3 3 4 4 4 4 5
2 2 2 3 2 2 3 3 3 4 4 4 5 6 9 5 4 4 4 4 4 3 3 3 3 3 3 3 3 4 3 3 3 3 3 3 3 3 3 4 4 4 4
2 2 3 3 3 5 4 3 3 3 3 4 4 5 6 5 4 4 3 3 3 3 2 3 2 1 2 2 2 3 3 3 2 2 3 3 3 3 3 3 4 4 4
2 3 3 3 3 3 4 4 4 5 3 3 3 3 4 3 3 3 2 2 2 1 1 1 2 2 3 3 2 3 2 3 3 2 2 3 3 4 3 4 4 3 3
2 3 3 3 3 3 4 4 4 3 3 2 2 2 3 3 3 3 2 2 2 2 1 1 2 3 2 4 4 3 6 9 5 6 2 2 2 2 3 3 3 4 4
2 2 2 2 3 4 4 4 4 4 3 2 2 2 2 3 3 3 2 3 3 3 4 6 8 8 9 9 11 14 16 14 10 14 6 3 3 3 4 4 5 5 5